Location: *
(37.9500°N, 27.3666°E)
Time: 05:20:22
(UTC+00:00)

Cosmos 724 - Pass Details

Date: 24 October 2021
Orbit: 857 x 937 km, 65.6° (Epoch: 03 December)

Event Time Altitude Azimuth Distance (km) Brightness Sun altitude
Rises 16:03:14 0° 330° (NNW) 3,513 7.7 -9.0°
Reaches altitude 10° 16:05:46 10° 330° (NNW) 2,557 7.0 -9.5°
Maximum altitude 16:11:42 88° 244° (WSW) 880 4.3 -10.7°
Drops below altitude 10° 16:17:29 10° 153° (SSE) 2,496 6.4 -11.8°
Sets 16:19:55 0° 153° (SSE) 3,423 7.1 -12.3°
